TimeCST,TemperatureF,Dew PointF,Humidity,Sea Level PressureIn,VisibilityMPH,Wind Direction,Wind SpeedMPH,Gust SpeedMPH,PrecipitationIn,Events,Conditions,WindDirDegrees,DateUTC
12:13 AM,21.2,17.6,86,30.04,3.0,Calm,Calm,-,N/A,Snow,Light Snow,0,2012-12-08 06:13:00
12:32 AM,21.2,17.6,86,30.04,3.0,Calm,Calm,-,N/A,Snow,Light Snow,0,2012-12-08 06:32:00
12:52 AM,21.2,17.6,86,30.04,3.0,Calm,Calm,-,N/A,Snow,Light Snow,0,2012-12-08 06:52:00
1:13 AM,21.2,17.6,86,30.03,4.0,Calm,Calm,-,N/A,Snow,Light Snow,0,2012-12-08 07:13:00
1:32 AM,21.2,17.6,86,30.03,4.0,Calm,Calm,-,N/A,Snow,Light Snow,0,2012-12-08 07:32:00
1:52 AM,21.2,17.6,86,30.03,5.0,Calm,Calm,-,N/A,Snow,Light Snow,0,2012-12-08 07:52:00
2:13 AM,21.2,17.6,86,30.03,7.0,Calm,Calm,-,N/A,Snow,Light Snow,0,2012-12-08 08:13:00
2:52 AM,21.2,17.6,86,30.03,7.0,Calm,Calm,-,N/A,Snow,Light Snow,0,2012-12-08 08:52:00
3:13 AM,21.2,17.6,86,30.03,10.0,Calm,Calm,-,N/A,,Mostly Cloudy,0,2012-12-08 09:13:00
3:32 AM,21.2,17.6,86,30.03,10.0,Calm,Calm,-,N/A,,Scattered Clouds,0,2012-12-08 09:32:00
3:52 AM,21.2,17.6,86,30.03,10.0,Calm,Calm,-,N/A,,Mostly Cloudy,0,2012-12-08 09:52:00
4:12 AM,21.2,17.6,86,30.02,10.0,Calm,Calm,-,N/A,,Mostly Cloudy,0,2012-12-08 10:12:00
4:32 AM,21.2,17.6,86,30.03,10.0,Calm,Calm,-,N/A,,Mostly Cloudy,0,2012-12-08 10:32:00
5:12 AM,21.2,17.6,86,30.03,3.0,Calm,Calm,-,N/A,,Overcast,0,2012-12-08 11:12:00
5:33 AM,21.2,17.6,86,30.03,3.0,Calm,Calm,-,N/A,,Overcast,0,2012-12-08 11:33:00
5:53 AM,21.2,17.6,86,30.03,1.8,Calm,Calm,-,N/A,Snow,Light Snow,0,2012-12-08 11:53:00
6:12 AM,21.2,19.4,93,30.03,2.5,Calm,Calm,-,N/A,Snow,Light Snow,0,2012-12-08 12:12:00
6:33 AM,21.2,19.4,93,30.03,7.0,Calm,Calm,-,N/A,,Overcast,0,2012-12-08 12:33:00
6:53 AM,21.2,19.4,93,30.03,10.0,Calm,Calm,-,N/A,,Overcast,0,2012-12-08 12:53:00
7:12 AM,21.2,19.4,93,30.02,10.0,Calm,Calm,-,N/A,,Overcast,0,2012-12-08 13:12:00
7:33 AM,21.2,19.4,93,30.01,10.0,Calm,Calm,-,N/A,,Overcast,0,2012-12-08 13:33:00
7:53 AM,23.0,19.4,86,30.02,10.0,Calm,Calm,-,N/A,,Overcast,0,2012-12-08 13:53:00
8:12 AM,23.0,19.4,86,30.01,10.0,ESE,3.5,-,N/A,,Overcast,120,2012-12-08 14:12:00
8:33 AM,23.0,19.4,86,30.02,10.0,East,4.6,-,N/A,,Overcast,100,2012-12-08 14:33:00
8:53 AM,23.0,19.4,86,30.02,10.0,SE,3.5,-,N/A,,Overcast,130,2012-12-08 14:53:00
9:12 AM,23.0,19.4,86,30.02,10.0,ESE,4.6,-,N/A,,Overcast,110,2012-12-08 15:12:00
9:33 AM,23.0,19.4,86,30.03,10.0,SE,3.5,-,N/A,,Overcast,130,2012-12-08 15:33:00
9:53 AM,23.0,19.4,86,30.03,10.0,ESE,4.6,-,N/A,,Overcast,120,2012-12-08 15:53:00
10:12 AM,24.8,19.4,80,30.03,10.0,SE,4.6,-,N/A,,Overcast,130,2012-12-08 16:12:00
10:33 AM,24.8,19.4,80,30.03,10.0,SE,4.6,-,N/A,,Overcast,130,2012-12-08 16:33:00
10:53 AM,26.6,19.4,74,30.04,10.0,SE,3.5,-,N/A,,Overcast,140,2012-12-08 16:53:00
11:12 AM,26.6,21.2,80,30.03,10.0,SE,3.5,-,N/A,,Overcast,130,2012-12-08 17:12:00
11:33 AM,26.6,21.2,80,30.02,10.0,SSE,3.5,-,N/A,,Overcast,160,2012-12-08 17:33:00
11:52 AM,28.4,21.2,74,30.01,10.0,SSE,4.6,-,N/A,,Mostly Cloudy,150,2012-12-08 17:52:00
12:13 PM,28.4,21.2,74,30.01,10.0,SSE,4.6,-,N/A,,Overcast,160,2012-12-08 18:13:00
12:33 PM,28.4,21.2,74,30.00,10.0,SSE,3.5,-,N/A,,Overcast,150,2012-12-08 18:33:00
12:52 PM,28.4,21.2,74,29.99,10.0,ESE,3.5,-,N/A,,Overcast,110,2012-12-08 18:52:00
1:13 PM,28.4,23.0,80,29.99,10.0,Calm,Calm,-,N/A,,Overcast,0,2012-12-08 19:13:00
1:33 PM,30.2,23.0,75,29.99,10.0,SE,3.5,-,N/A,,Overcast,130,2012-12-08 19:33:00
1:52 PM,30.2,23.0,75,29.99,10.0,ESE,5.8,-,N/A,,Overcast,120,2012-12-08 19:52:00
2:13 PM,30.2,23.0,75,29.98,10.0,SSE,3.5,-,N/A,,Mostly Cloudy,160,2012-12-08 20:13:00
2:33 PM,30.2,23.0,75,29.97,10.0,SE,5.8,-,N/A,,Scattered Clouds,140,2012-12-08 20:33:00
2:52 PM,30.2,23.0,75,29.97,10.0,ESE,6.9,-,N/A,,Clear,120,2012-12-08 20:52:00
3:13 PM,30.2,23.0,75,29.96,10.0,East,6.9,-,N/A,,Clear,100,2012-12-08 21:13:00
3:33 PM,30.2,23.0,75,29.96,10.0,ESE,5.8,-,N/A,,Scattered Clouds,120,2012-12-08 21:33:00
3:52 PM,30.2,23.0,75,29.98,10.0,SE,4.6,-,N/A,,Mostly Cloudy,130,2012-12-08 21:52:00
4:13 PM,30.2,23.0,75,29.98,10.0,ESE,3.5,-,N/A,,Overcast,120,2012-12-08 22:13:00
4:32 PM,30.2,23.0,75,29.98,10.0,SSE,4.6,-,N/A,,Overcast,160,2012-12-08 22:32:00
4:53 PM,28.4,23.0,80,29.98,10.0,SE,4.6,-,N/A,,Mostly Cloudy,140,2012-12-08 22:53:00
5:12 PM,28.4,23.0,80,29.99,10.0,Calm,Calm,-,N/A,,Mostly Cloudy,0,2012-12-08 23:12:00
5:33 PM,28.4,23.0,80,29.99,10.0,Calm,Calm,-,N/A,,Mostly Cloudy,0,2012-12-08 23:33:00
5:53 PM,28.4,23.0,80,29.99,10.0,Calm,Calm,-,N/A,,Mostly Cloudy,0,2012-12-08 23:53:00
6:12 PM,28.4,23.0,80,29.99,10.0,East,3.5,-,N/A,,Scattered Clouds,80,2012-12-09 00:12:00
6:33 PM,28.4,23.0,80,29.99,10.0,Calm,Calm,-,N/A,,Scattered Clouds,0,2012-12-09 00:33:00
6:53 PM,28.4,23.0,80,29.99,10.0,Calm,Calm,-,N/A,,Scattered Clouds,0,2012-12-09 00:53:00
7:12 PM,28.4,23.0,80,29.99,10.0,Calm,Calm,-,N/A,,Clear,0,2012-12-09 01:12:00
7:33 PM,28.4,23.0,80,30.00,10.0,East,3.5,-,N/A,,Clear,100,2012-12-09 01:33:00
7:53 PM,28.4,23.0,80,29.99,10.0,East,4.6,-,N/A,,Clear,90,2012-12-09 01:53:00
8:12 PM,28.4,21.2,74,29.99,10.0,East,3.5,-,N/A,,Clear,90,2012-12-09 02:12:00
8:33 PM,28.4,23.0,80,29.99,10.0,East,4.6,-,N/A,,Clear,90,2012-12-09 02:33:00
8:52 PM,28.4,23.0,80,29.99,10.0,East,3.5,-,N/A,,Clear,90,2012-12-09 02:52:00
9:13 PM,28.4,23.0,80,29.98,10.0,East,4.6,-,N/A,,Scattered Clouds,90,2012-12-09 03:13:00
9:32 PM,28.4,23.0,80,29.98,10.0,East,5.8,-,N/A,,Scattered Clouds,90,2012-12-09 03:32:00
9:52 PM,28.4,23.0,80,29.99,10.0,East,6.9,-,N/A,,Clear,80,2012-12-09 03:52:00
10:13 PM,28.4,23.0,80,29.99,10.0,East,5.8,-,N/A,,Mostly Cloudy,90,2012-12-09 04:13:00
10:32 PM,30.2,24.8,80,29.99,3.0,East,6.9,-,N/A,Snow,Light Snow,90,2012-12-09 04:32:00
10:53 PM,28.4,26.6,93,29.99,2.5,East,5.8,-,N/A,Snow,Snow,90,2012-12-09 04:53:00
11:13 PM,28.4,26.6,93,30.00,2.5,East,6.9,-,N/A,Snow,Light Snow,90,2012-12-09 05:13:00
11:32 PM,28.4,26.6,93,30.01,1.5,East,6.9,-,N/A,Snow,Light Snow,100,2012-12-09 05:32:00
11:53 PM,28.4,26.6,93,30.01,1.8,East,5.8,-,N/A,Snow,Light Snow,100,2012-12-09 05:53:00